Regional Weather Roundup
Issued by NWS Cleveland, OH

Home | Current Version | Previous Version | Text Only | Print | Product List | Glossary Off
Versions: 1 2 3 4 5 6 7 8 9 10 11 12 13 14 15 16 17 18 19 20 21 22 23 24 25 26 27 28 29 30 31 32 33 34 35 36 37 38 39 40 41 42 43 44 45 46 47 48 49 50

000
ASUS41 KCLE 301800
RWRCLE
OHIO REGIONAL WEATHER ROUNDUP
NATIONAL WEATHER SERVICE WILMINGTON, OH
200 PM EDT THU JUL 30 2015

NOTE: "FAIR" INDICATES FEW OR NO CLOUDS BELOW 12,000 FEET WITH NO
SIGNIFICANT WEATHER AND/OR OBSTRUCTIONS TO VISIBILITY.

OHZ001>008-015>018-024>027-034-035-043-044-301900-
   NORTHWEST OHIO

CITY           SKY/WX    TMP DP  RH WIND       PRES   REMARKS
DEFIANCE       SUNNY     85  56  37 VRB6G18   30.02F
FINDLAY        SUNNY     84  59  42 W14G20    30.01F
TOLEDO EXPRESS SUNNY     82  55  39 W13       29.99F
TOLEDO EXEC    MOSUNNY   84  56  38 W16       30.00F
LIMA           SUNNY     82  57  42 W12       30.04F
$$

OHZ009>014-019>023-028>033-038-089-301900-
   NORTHEAST OHIO

CITY           SKY/WX    TMP DP  RH WIND       PRES   REMARKS
CLE-HOPKINS    MOSUNNY   84  55  36 W15G24    30.01S
CLE-LAKEFRONT  SUNNY     81  64  56 W14       29.97F
CUY CO. ARPT   MOSUNNY   82  63  51 W17       29.99F
LORAIN-ELYRIA  SUNNY     82  58  43 W8        30.00F
ASHTABULA      MOSUNNY   82  55  39 W13G23    29.98S
AKRON-CANTON   MOSUNNY   85  58  39 W12       30.00F
WOOSTER        NOT AVBL
MANSFIELD      MOSUNNY   81  57  43 W7G18     30.03F
YOUNGSTOWN     PTSUNNY   83  57  41 NW12G21   29.98F
$$

OHZ042-051>053-060>062-070>072-077>081-301900-
  SOUTHWEST OHIO

CITY           SKY/WX    TMP DP  RH WIND       PRES   REMARKS
CINC-COVINGTON MOSUNNY   84  56  37 NW9       30.08F
CINC-LUNKEN    SUNNY     83  60  45 SW10      30.07S
HAMILTON       SUNNY     84  59  42 NW12      30.07F
DAYTON         NOT AVBL
WRIGHT-PAT AFB NOT AVBL
DAYTON GENERAL SUNNY     82  57  42 W10       30.07F
WILMINGTON     SUNNY     82  58  43 W9        30.06F
$$

OHZ036-037-039>041-045>050-054>059-063>069-073>076-082>088-301900-
  CENTRAL AND SOUTHEAST OHIO

CITY           SKY/WX    TMP DP  RH WIND       PRES   REMARKS
COLUMBUS       MOSUNNY   84  57  39 VRB7      30.02F
OSU AIRPORT    SUNNY     83  58  42 NW9G18    30.03F
BOLTON FIELD   SUNNY     81  61  50 NW7       30.05F
RICKENBACK AFB NOT AVBL
NEWARK         SUNNY     84  57  39 W9        30.02F
MARION         SUNNY     82  56  40 NW12      30.03F
LANCASTER      SUNNY     82  62  50 VRB7      30.04F
ZANESVILLE     SUNNY     83  54  36 NW12      30.02F
NEW PHILLY     SUNNY     82  61  48 W8        30.01F
$$



USA.gov is the U.S. government's official web portal to all federal, state and local government web resources and services.